RH
29 28 28 28 29 29 29 28 29 30 29 28 28 28 28 26 27 29 28 28 29 29 28 25 24 23 22 21 20 20 20 20 20 21 22 22 22 23 23 24 24 24 24 25 25 26 25 25 25 24 25 26 27 28 28 27 26 26 27 27 27 27 27 27 27 33 47 73 80 83 93 94 95 95 97 97 94 92 93 93 94 95 91 86 81 73 63 57 50 44 41 40 43 48 60 58 60 61 58 49 42 38 35
29 30 29 29 29 30 30 31 31 32 31 32 31 31 32 35 38 39 35 39 42 41 33 30 28 27 25 25 25 25 25 24 24 24 25 24 24 23 22 23 23 23 23 23 23 23 22 22 23 24 24 25 26 27 28 26 24 23 25 27 28 28 27 27 26 27 31 54 72 84 88 89 93 96 97 97 93 90 89 91 92 92 91 92 92 90 86 79 72 65 58 51 46 44 43 44 49 55 55 56 54 51 47
30 30 30 29 30 31 33 33 34 35 35 38 39 38 38 52 57 57 57 51 47 43 40 37 34 31 30 31 32 32 32 31 31 30 30 30 29 28 27 26 26 26 26 25 24 24 23 22 23 23 25 24 25 27 28 27 24 22 22 25 28 30 31 30 29 28 26 33 54 77 90 87 86 88 96 95 92 89 85 88 90 91 94 92 93 94 95 92 90 88 83 75 65 56 49 44 43 44 44 46 49 53 55
30 30 30 31 32 34 35 35 36 39 43 44 49 53 48 51 57 63 68 57 51 46 40 41 38 35 34 36 38 40 40 38 37 36 35 35 34 34 33 33 32 32 31 30 30 29 28 26 26 26 27 27 27 27 30 29 26 23 22 24 29 34 36 36 34 32 29 29 43 65 90 87 85 85 92 94 91 87 86 86 87 89 95 90 90 91 93 92 92 91 91 88 83 76 68 60 52 46 43 40 39 41 45
32 32 32 33 34 36 36 37 39 42 48 46 54 62 63 60 63 67 70 68 65 58 48 45 43 41 40 42 44 45 44 42 41 40 39 38 36 35 35 36 36 36 35 35 35 35 34 33 32 32 32 33 32 31 33 34 33 30 27 29 33 37 40 39 37 35 34 33 39 56 88 88 89 91 93 95 93 91 89 87 88 90 92 88 88 90 90 85 88 90 89 88 90 91 85 79 70 61 54 50 45 41 39
32 33 33 35 37 38 39 40 42 44 46 51 61 71 78 73 73 76 77 77 76 71 62 53 48 46 45 46 47 47 45 43 43 43 41 39 37 35 34 33 34 34 35 35 36 36 37 37 37 38 39 39 38 38 39 40 39 37 35 36 39 41 41 40 39 38 39 39 45 60 88 92 94 96 95 94 93 93 96 93 93 91 85 85 89 91 84 80 78 77 76 81 89 94 95 92 86 78 68 62 59 55 50
33 34 35 37 39 40 41 43 45 48 49 57 63 69 78 77 79 80 75 77 79 78 70 60 53 49 49 49 49 47 45 45 45 45 43 39 35 33 31 30 30 31 31 32 33 35 36 38 40 42 44 44 42 41 41 40 39 38 37 39 40 41 40 40 39 39 40 42 59 79 93 95 95 94 93 93 92 92 94 95 95 93 88 83 85 89 93 89 85 80 75 77 79 85 94 95 95 93 88 79 72 67 65
34 36 38 40 42 43 45 47 50 53 55 62 70 77 84 79 78 79 76 80 80 77 74 65 56 51 51 51 49 47 46 47 49 48 43 38 34 31 29 28 28 29 30 32 33 35 36 39 42 45 46 43 39 36 35 35 34 35 36 38 38 37 36 37 37 39 40 52 68 84 94 96 94 92 92 94 95 96 96 96 95 95 96 93 88 85 85 90 91 87 80 81 79 80 88 91 93 94 94 92 89 87 84
34 37 40 43 46 49 52 54 56 57 59 64 73 81 86 85 81 77 75 75 76 76 72 65 58 53 52 51 49 48 48 51 51 48 43 38 34 30 28 27 27 28 31 34 36 37 39 41 43 43 41 36 32 30 30 29 29 31 35 34 33 32 31 32 33 35 39 53 66 78 93 94 94 94 94 95 97 97 96 97 96 94 92 95 94 90 88 93 95 95 91 91 89 86 85 85 88 92 93 94 96 97 97
36 41 45 49 53 56 59 60 61 63 65 68 74 80 82 84 81 77 72 71 70 69 65 61 57 54 53 51 50 49 51 52 51 47 43 38 35 31 28 26 27 29 32 36 38 39 40 41 40 37 33 29 27 27 27 25 25 27 31 29 28 27 27 28 29 31 36 48 63 79 93 94 96 97 98 97 96 96 94 95 95 95 94 96 94 92 96 96 96 97 97 94 93 92 88 84 84 85 88 92 95 96 95
43 49 54 57 59 61 62 64 65 66 67 68 70 71 72 74 74 72 68 65 62 60 58 56 55 53 52 51 51 52 52 50 47 43 41 38 35 32 29 27 27 28 31 35 36 37 36 35 34 32 29 28 27 26 26 22 21 22 25 24 24 24 24 25 25 26 31 48 66 81 90 94 96 95 93 93 93 93 90 89 88 89 92 95 95 94 95 95 94 94 95 95 94 94 96 92 90 89 87 88 88 90 93
53 58 60 62 62 63 65 68 69 69 68 68 67 66 66 66 66 64 63 60 59 57 56 55 54 53 53 54 55 55 53 48 44 40 38 37 35 33 31 28 27 28 30 32 32 32 30 30 30 30 30 29 28 26 25 21 18 18 20 21 22 22 22 23 22 23 25 51 70 82 84 91 92 89 84 81 83 85 83 81 80 81 81 86 91 95 96 94 94 94 93 93 95 96 93 90 91 93 92 92 89 85 83
60 62 63 63 64 66 70 74 74 71 68 67 68 69 70 66 62 60 59 59 59 58 57 55 54 54 56 58 59 58 54 50 45 42 38 37 36 35 33 30 28 27 27 29 29 28 27 28 30 32 32 30 28 27 24 20 18 18 18 20 21 22 22 23 22 21 22 38 55 69 78 80 78 74 70 67 68 71 74 72 71 71 71 78 81 85 95 96 96 95 95 95 95 94 92 89 92 95 94 94 95 94 90
62 64 64 65 67 71 77 81 78 72 66 66 70 74 72 66 61 59 60 63 64 63 61 58 57 58 60 62 62 61 58 56 54 50 46 42 39 37 35 32 29 26 26 26 27 27 26 28 31 32 32 29 27 26 22 19 18 18 18 21 22 22 22 24 23 21 19 27 38 49 57 59 56 53 53 54 57 62 69 71 71 71 72 76 76 77 85 90 95 97 97 96 96 95 93 94 95 97 97 94 94 96 96
64 65 66 67 70 74 80 84 80 72 64 66 73 78 75 71 66 63 64 70 72 71 68 66 64 63 63 64 64 64 65 66 65 62 57 51 44 39 36 34 30 26 24 24 24 25 26 28 29 29 28 26 25 23 21 18 17 18 19 21 22 23 22 24 23 20 19 19 25 31 35 38 39 40 41 44 50 56 60 66 66 64 70 81 82 80 77 80 86 93 97 97 97 97 95 97 96 96 96 95 95 94 93
67 66 66 68 71 76 80 84 81 75 66 66 74 81 81 79 74 69 66 74 77 78 76 74 71 68 64 64 66 68 71 75 77 75 69 59 49 41 37 34 29 25 22 21 22 22 24 25 26 26 24 23 22 20 19 18 17 17 20 21 22 22 21 21 20 19 18 18 21 24 27 28 29 29 31 35 41 48 51 55 58 60 63 77 83 84 84 82 81 85 94 97 97 96 96 97 97 96 96 96 95 94 91
71 68 66 69 74 78 80 82 83 80 72 66 73 83 86 85 81 74 66 71 77 80 81 81 78 74 69 67 68 72 77 83 86 85 80 66 53 43 37 33 29 24 21 20 20 20 21 22 22 21 20 19 19 18 18 17 17 17 19 21 21 21 20 19 18 18 18 18 18 19 22 23 24 24 25 27 31 35 40 45 51 55 57 67 77 85 90 89 89 89 91 97 96 94 96 96 96 96 96 95 94 94 94
74 71 70 73 79 83 82 83 85 84 79 68 72 81 90 91 87 79 67 65 71 78 81 84 83 79 75 72 73 76 83 86 88 87 84 70 56 44 37 33 29 25 23 21 20 19 19 19 19 18 16 16 17 17 16 16 16 17 19 20 21 20 19 18 18 17 17 17 17 17 18 19 20 21 22 24 25 27 30 33 38 45 54 62 70 78 87 90 93 95 95 97 96 95 97 95 94 93 94 93 93 95 96
75 73 76 80 85 88 86 85 86 87 84 71 70 77 88 92 90 83 70 61 65 74 78 82 83 81 79 78 78 80 83 83 82 80 76 66 54 43 36 34 31 28 26 24 22 20 19 18 17 15 14 14 15 15 14 14 15 16 18 19 19 19 18 18 17 16 16 16 16 16 17 18 19 20 21 22 22 24 26 28 31 38 52 61 66 70 78 86 91 93 95 96 96 96 96 94 93 93 94 95 96 96 96
76 76 82 86 91 92 88 86 87 87 84 73 69 72 83 87 90 86 71 58 61 70 76 79 81 82 82 82 80 78 76 72 68 63 58 50 43 37 34 33 32 30 27 25 23 22 20 18 16 14 13 13 13 13 13 12 13 14 16 17 18 18 17 17 16 15 15 15 15 15 15 16 17 18 19 20 21 22 24 27 32 39 44 56 62 65 71 81 86 90 93 93 93 95 96 95 95 95 96 97 97 97 96
76 79 86 90 93 93 89 86 87 87 82 74 67 66 77 83 87 85 68 54 58 69 79 81 82 83 83 81 76 69 61 54 47 42 36 31 27 26 26 27 27 26 24 22 21 20 19 16 14 13 12 12 12 11 11 10 11 12 14 15 16 16 16 15 15 14 14 14 14 14 14 14 14 15 17 18 20 22 24 27 31 35 35 43 48 56 67 74 79 84 90 88 89 92 95 95 96 96 96 97 97 97 97
78 83 90 94 94 92 88 87 87 85 80 74 65 62 75 81 84 80 64 55 59 70 85 83 81 80 77 71 63 54 43 35 29 24 21 18 17 17 18 18 19 18 17 17 17 16 15 14 13 12 11 11 11 10 10 9 9 10 12 13 14 15 14 14 13 13 13 13 13 13 13 13 14 14 16 17 18 21 23 25 27 29 30 33 42 54 68 65 67 73 84 83 82 84 87 90 91 91 93 94 96 96 96
82 86 91 96 96 93 88 86 85 83 78 72 62 59 75 79 79 74 61 59 61 67 78 74 70 67 62 55 46 37 27 21 17 15 13 12 12 12 12 12 12 12 12 12 12 12 12 11 11 10 10 10 10 10 9 9 9 9 10 11 12 13 13 12 12 12 12 12 12 12 12 12 13 13 14 18 19 20 23 24 24 25 27 30 38 49 59 55 57 63 72 73 73 75 78 84 89 93 95 93 94 95 95
86 86 91 96 97 94 89 85 83 81 77 68 56 53 72 73 71 66 60 60 57 54 56 53 50 45 40 34 28 22 16 13 12 11 10 10 10 10 10 9 9 9 9 9 9 9 9 9 9 9 9 9 9 9 9 8 8 8 8 10 11 11 11 11 11 10 10 10 10 11 11 11 11 12 14 15 18 20 21 22 23 24 26 29 34 40 48 54 59 63 68 67 69 72 72 79 86 92 93 91 90 91 93
86 85 90 96 96 93 88 84 83 80 75 59 45 44 63 60 58 56 55 52 46 39 35 33 29 25 22 19 16 13 11 10 10 10 9 9 9 9 9 8 8 8 8 8 8 8 8 8 8 8 8 8 8 8 8 8 7 7 7 9 10 10 10 10 10 9 9 9 9 9 10 10 10 12 15 17 17 18 20 22 24 27 31 36 42 49 56 65 64 64 77 69 65 66 68 76 82 88 93 91 89 89 89
86 87 92 95 95 92 88 85 84 78 62 43 35 38 51 46 43 42 42 37 32 27 24 21 18 16 14 12 11 10 10 9 9 9 9 8 8 8 8 7 7 7 7 7 6 6 7 7 7 7 7 7 7 7 7 7 7 7 7 9 9 10 9 9 8 8 8 8 8 8 9 9 10 11 16 16 17 18 21 23 27 34 45 48 55 62 66 62 56 54 65 60 58 59 64 70 76 83 90 88 86 86 85
89 90 93 96 95 92 87 86 79 65 42 31 29 33 37 33 31 30 28 25 22 20 18 16 14 12 12 11 11 10 10 9 9 9 8 8 7 7 7 7 7 6 6 6 6 6 6 6 6 6 6 6 6 6 7 7 7 7 8 9 10 9 9 8 7 6 7 7 8 8 9 9 10 12 17 17 18 20 22 26 35 47 58 58 60 61 63 55 48 45 46 52 56 59 60 62 69 76 80 85 86 86 86
91 93 95 94 90 86 83 81 66 45 29 26 24 23 23 21 20 20 20 18 17 16 14 14 14 14 13 12 12 11 11 10 10 9 9 8 8 7 7 7 6 6 6 6 6 6 6 6 6 5 5 5 5 6 6 7 7 7 8 9 10 9 8 7 6 6 6 7 8 9 9 10 11 12 15 16 18 20 21 26 37 48 53 53 50 49 54 53 53 52 52 59 63 65 65 69 74 78 83 89 92 92 89
93 94 94 89 84 79 77 65 45 29 28 25 21 20 21 19 18 17 17 17 17 18 18 17 17 16 15 15 14 13 13 12 12 11 10 9 9 8 8 7 7 6 6 6 6 5 5 6 5 5 5 5 5 5 6 6 7 7 8 9 9 9 8 7 7 7 7 8 9 10 11 12 12 13 13 15 18 19 19 21 31 40 43 44 42 42 51 51 52 55 61 66 69 71 74 79 85 89 90 90 86 85 94
93 92 90 86 82 76 65 41 28 25 30 25 22 21 22 20 19 19 20 20 21 21 20 20 19 19 18 18 17 16 16 15 14 13 11 11 10 9 8 8 7 6 6 6 6 6 5 5 5 5 5 5 5 5 6 7 7 7 7 8 8 9 9 8 8 8 9 10 11 12 12 13 13 13 13 13 13 14 16 18 23 30 36 33 32 31 32 32 35 44 60 68 76 79 75 80 83 84 83 86 89 91 92
89 88 88 85 79 66 44 27 23 24 25 23 22 21 21 21 22 22 23 23 23 23 23 23 22 22 22 21 20 19 19 17 16 14 13 12 11 10 9 8 7 6 6 6 6 6 6 6 5 5 5 5 5 6 7 7 8 7 7 7 8 9 9 9 9 10 10 11 12 12 13 13 13 12 12 11 11 11 12 13 16 19 22 21 20 19 19 19 24 34 48 56 68 76 71 76 79 81 85 89 92 93 88
84 85 89 83 69 51 31 24 22 22 22 23 22 22 23 24 25 25 26 26 26 26 26 26 26 26 26 25 23 22 21 20 18 16 14 13 12 10 9 8 7 6 6 5 5 6 6 6 5 5 5 5 6 7 8 9 8 8 7 7 8 8 9 9 9 9 10 10 11 11 12 11 11 10 10 9 9 9 8 10 11 13 15 17 18 18 17 19 20 25 40 55 58 57 61 70 82 89 88 90 93 94 93
83 87 92 76 58 43 32 26 23 21 22 23 24 24 26 26 27 28 28 29 30 30 29 29 29 28 28 27 26 24 23 21 19 18 16 14 12 10 9 8 7 6 5 5 5 5 5 5 5 6 6 6 7 8 9 10 9 8 8 7 7 7 8 8 7 7 7 8 8 9 9 9 9 8 8 7 7 7 7 8 9 10 10 13 15 16 17 18 19 22 29 35 43 53 65 70 80 87 88 88 90 92 89
83 89 95 74 59 47 37 28 23 21 23 25 26 26 27 28 29 30 31 31 31 31 31 30 30 30 29 28 27 26 24 23 21 19 17 15 13 11 9 7 6 6 5 5 5 5 5 5 5 6 6 6 7 8 9 10 9 8 7 6 5 5 5 5 5 5 5 5 5 6 6 7 7 7 7 7 7 7 7 7 8 8 8 9 12 14 14 16 17 18 20 24 34 48 61 70 76 79 80 80 83 84 82
83 89 93 78 66 54 40 28 23 22 25 26 27 28 29 30 31 31 32 32 32 32 32 31 31 31 30 29 28 26 25 24 22 20 18 16 13 11 9 8 7 6 6 6 6 6 5 5 5 6 6 6 7 7 8 8 8 8 7 6 5 4 4 4 4 4 4 4 4 4 5 5 6 6 6 7 7 7 7 7 7 7 7 8 8 9 9 11 13 15 18 20 26 35 45 57 60 61 65 69 71 72 73
84 86 88 80 69 56 37 27 23 24 26 27 29 29 30 31 31 32 32 32 32 32 32 32 32 32 31 30 29 27 26 25 24 22 19 17 14 12 10 8 7 7 7 6 6 6 6 6 6 6 6 6 6 7 7 7 7 7 7 7 6 6 5 5 5 5 5 5 4 5 5 5 6 6 7 7 7 7 7 6 6 6 6 6 7 7 8 9 10 11 15 17 21 27 32 41 48 53 58 66 68 66 65
86 86 84 76 65 50 31 25 24 25 27 28 30 30 31 31 32 32 33 33 33 33 32 33 33 32 32 31 29 28 27 26 25 23 21 18 16 13 11 9 8 7 7 7 7 7 7 7 7 7 6 7 7 7 7 8 8 8 8 8 8 8 8 7 7 7 7 7 7 6 6 7 7 7 7 7 7 7 7 6 6 6 6 6 6 6 7 7 8 10 12 14 18 24 34 40 48 55 58 62 61 61 67
89 86 82 70 56 40 26 25 25 26 28 29 30 31 32 32 32 33 34 34 34 34 33 34 34 34 33 32 30 29 28 28 27 25 23 20 18 15 12 10 9 8 7 7 7 7 8 8 8 8 8 7 7 7 8 9 9 8 8 9 9 10 10 10 10 10 10 10 10 10 9 9 9 9 9 9 9 8 8 7 7 7 8 8 7 7 7 7 8 9 10 13 17 23 34 39 46 51 54 57 58 61 67
89 84 78 64 47 32 23 26 26 27 29 30 31 32 32 33 33 34 34 34 34 35 35 35 35 34 34 33 31 30 29 29 28 26 24 22 19 17 14 12 10 9 8 7 7 8 9 10 10 9 9 8 8 9 9 9 8 7 8 9 10 11 11 11 12 12 13 13 13 13 13 13 12 12 11 10 10 9 9 8 7 8 9 9 9 9 9 9 10 11 13 18 23 27 32 41 46 50 52 58 62 66 68
88 81 72 56 40 27 24 26 27 28 29 31 31 32 33 33 33 34 34 35 35 35 35 35 35 35 35 34 32 31 31 30 29 27 25 23 21 18 15 13 11 10 8 7 8 9 11 12 11 11 10 10 10 10 11 9 7 7 8 10 11 12 12 13 13 14 14 14 14 14 14 15 14 14 13 11 11 10 10 9 8 7 7 8 8 9 10 12 15 19 25 31 35 37 39 44 48 51 54 59 61 63 66
85 77 65 49 34 25 25 27 27 28 30 31 32 32 33 33 33 34 34 35 35 36 36 36 35 35 35 35 34 33 32 32 30 28 26 24 22 19 17 14 12 11 8 7 8 9 12 13 14 13 13 13 12 12 11 8 7 7 9 11 13 14 14 15 15 15 14 13 13 13 13 14 14 13 12 12 11 11 10 10 9 8 7 7 7 8 10 14 20 27 34 39 43 45 43 48 49 50 52 57 58 58 59
83 74 59 43 30 24 26 27 28 29 30 31 32 32 33 33 34 34 34 35 36 37 37 36 36 36 35 35 35 34 33 32 31 29 27 25 23 21 18 16 14 12 10 7 8 9 13 14 15 15 15 15 14 12 9 8 8 10 13 15 16 16 17 17 17 17 15 13 12 12 12 12 12 12 12 12 12 13 12 11 10 9 8 8 7 8 9 13 19 25 30 34 37 41 44 48 47 47 50 55 58 59 56
84 72 53 37 27 24 26 28 28 29 31 32 32 33 33 33 34 34 34 35 36 37 37 37 37 36 36 36 35 35 34 33 32 30 28 26 24 22 20 18 16 14 12 9 8 9 12 15 16 17 17 17 15 12 9 10 12 16 19 20 20 19 19 20 20 19 17 14 13 12 12 12 12 13 14 15 15 15 14 13 12 11 10 9 9 9 10 12 14 18 21 25 30 35 41 44 45 47 55 59 60 60 56
87 74 52 34 26 24 27 28 29 30 31 32 33 33 33 34 34 34 35 36 36 37 37 37 37 37 36 36 36 35 35 34 33 31 30 28 26 24 23 20 18 17 14 10 9 10 12 14 16 18 19 18 16 13 10 13 18 22 25 24 24 23 22 22 22 21 19 17 15 14 14 14 14 15 17 18 18 17 16 15 14 13 12 11 11 10 11 12 13 14 16 21 27 33 39 45 51 57 67 69 67 62 55
90 80 56 35 25 24 28 29 29 30 32 32 33 33 33 34 35 35 35 36 37 37 36 37 37 37 37 37 36 36 36 35 33 32 31 29 27 26 25 23 21 19 17 12 10 11 12 14 16 19 22 21 18 14 11 14 20 25 27 27 26 25 24 24 23 22 21 19 18 17 16 16 17 18 19 19 19 19 18 17 16 15 14 13 12 12 13 13 13 13 14 18 24 31 40 52 64 72 76 74 69 64 58
91 85 62 36 25 24 29 29 30 31 32 33 33 34 34 34 35 35 36 36 37 37 37 37 37 37 37 37 37 36 36 35 34 33 32 30 29 27 26 25 23 21 19 15 13 12 13 14 16 19 22 21 18 14 11 13 18 23 26 27 27 26 26 25 24 23 22 21 20 19 18 17 17 18 18 19 19 19 19 19 18 17 16 15 14 13 13 13 12 12 12 14 19 27 38 52 66 76 79 79 75 72 73
92 87 66 38 26 24 29 29 30 31 32 33 34 34 33 35 35 35 36 36 37 37 37 37 37 37 37 37 37 37 37 36 35 33 33 31 30 28 28 26 25 24 22 18 15 14 12 12 14 16 18 17 14 12 10 11 14 18 21 24 26 27 27 26 25 24 23 22 21 19 18 16 16 17 17 18 18 19 20 19 19 18 17 16 15 14 13 13 12 11 10 11 15 22 32 43 58 71 81 87 88 88 91
92 88 67 39 26 24 28 29 30 31 33 34 34 34 33 35 35 36 36 36 37 37 38 38 37 37 37 37 37 37 37 36 35 34 33 33 32 30 30 29 27 25 24 20 18 16 13 11 10 10 10 10 10 9 9 10 12 15 18 22 25 27 28 27 26 24 22 22 21 19 17 16 15 15 15 16 17 18 18 18 18 17 17 16 15 15 14 13 12 11 10 11 13 17 22 30 42 59 79 88 93 95 96
92 87 67 40 27 25 27 29 30 31 33 34 34 34 34 35 35 36 36 37 37 38 38 38 38 37 37 37 37 37 37 37 36 35 34 35 34 33 32 32 29 26 24 22 20 19 16 12 10 7 6 6 6 7 8 9 11 14 17 21 25 27 27 26 25 23 22 21 21 21 19 17 15 14 14 15 15 16 17 17 17 16 16 15 15 14 14 13 13 12 11 11 13 14 15 18 23 35 57 75 85 92 95
90 84 64 40 28 25 27 28 30 32 33 34 35 35 35 35 36 36 36 37 38 38 38 38 38 38 37 37 38 38 38 37 36 36 35 34 33 32 33 33 30 27 24 22 21 20 18 14 10 7 5 4 5 6 7 8 10 12 16 19 22 24 24 24 23 22 21 21 22 22 22 20 18 16 14 14 14 14 14 15 15 15 15 15 14 14 14 13 13 13 12 12 13 13 12 13 14 18 26 40 56 73 89
87 79 60 39 29 26 27 28 30 32 34 35 35 35 35 36 36 37 37 38 38 38 38 38 38 38 38 38 38 38 38 37 37 36 35 33 31 30 30 31 30 27 24 23 23 22 20 16 11 8 5 5 5 6 7 8 9 11 13 16 18 20 21 20 20 19 19 20 21 22 23 22 20 18 15 13 12 12 12 13 14 14 15 14 14 14 14 14 14 14 14 14 14 13 13 13 14 16 19 23 42 67 87
84 75 56 37 28 26 27 29 31 33 34 35 35 35 36 36 37 37 38 38 38 38 38 38 38 38 38 38 38 38 38 38 37 35 34 32 30 29 29 28 27 25 23 22 22 23 23 17 12 8 6 7 7 7 7 8 9 10 12 13 15 16 17 17 17 17 18 18 19 20 21 21 20 19 17 14 12 11 11 12 13 14 14 14 15 15 15 15 16 16 16 16 15 15 15 15 15 17 21 30 53 78 93
84 74 55 37 29 27 28 29 31 33 34 35 35 36 36 36 37 37 38 38 38 39 39 38 38 38 38 38 38 39 38 38 37 35 35 32 30 28 26 24 23 23 23 19 18 18 18 14 10 8 10 10 9 7 7 8 9 10 11 12 13 13 14 14 14 14 15 15 16 17 18 19 18 18 17 15 13 12 11 11 12 13 14 14 15 15 16 16 16 17 17 16 16 15 15 14 14 17 21 40 65 87 96
84 75 57 38 30 27 28 29 31 33 35 35 36 36 36 37 37 38 38 38 38 39 39 39 39 39 38 38 39 39 39 38 37 35 34 31 28 25 23 21 21 22 22 22 19 16 17 15 12 11 14 13 10 8 8 9 9 10 10 11 11 11 11 11 11 11 11 12 13 15 16 16 16 16 16 15 15 14 13 13 13 13 14 14 15 15 16 16 16 16 16 16 15 15 14 13 13 16 21 41 68 89 93
85 76 60 41 31 27 27 29 31 33 35 36 36 37 37 37 37 38 38 38 39 39 39 39 39 39 38 39 39 39 39 38 37 35 34 31 28 25 23 22 22 23 24 23 22 21 20 15 13 13 16 15 12 10 9 9 9 9 9 9 9 8 8 8 8 9 10 11 13 14 14 15 14 14 14 15 16 17 17 16 16 15 15 15 15 15 15 16 16 15 15 15 14 14 14 13 14 17 21 35 58 78 84
84 76 62 44 33 28 28 29 31 33 35 36 37 37 37 37 38 38 38 39 39 39 39 39 39 39 39 39 39 39 39 38 37 35 33 31 29 27 25 23 21 19 15 20 21 20 17 12 12 15 15 15 13 11 10 9 9 9 9 8 8 7 7 7 8 9 10 11 12 13 13 14 13 13 13 15 16 18 19 19 19 18 17 16 16 16 15 15 15 15 15 14 14 14 14 14 15 17 20 25 36 48 58
81 74 62 46 35 30 28 29 31 33 35 37 37 38 38 38 38 38 38 39 39 40 40 40 40 39 39 39 39 39 39 38 36 35 33 30 29 28 27 24 22 21 22 21 19 16 13 12 13 15 11 13 13 12 11 10 9 9 9 8 7 7 7 8 8 9 10 11 12 12 12 12 12 12 13 14 16 18 19 21 21 21 20 19 18 17 17 16 16 15 15 15 14 14 14 15 15 16 18 19 21 24 32
78 72 62 48 38 32 29 29 30 33 35 37 38 38 38 38 38 38 39 39 39 40 40 40 40 40 40 40 40 39 39 38 37 35 32 30 29 28 27 26 25 24 20 19 16 13 11 11 13 13 10 11 13 14 12 10 9 8 8 7 7 7 7 8 9 10 10 11 11 11 10 11 11 12 12 14 15 17 19 20 22 23 23 23 22 21 20 19 19 18 18 17 16 16 16 15 15 15 16 17 18 20 21
76 70 62 50 40 34 30 29 30 33 35 37 38 38 38 38 38 38 39 39 40 40 41 41 40 40 40 40 40 40 39 38 36 34 32 30 29 28 27 26 25 23 20 17 15 12 11 11 10 10 10 10 10 11 12 11 10 8 7 7 7 7 7 8 9 10 10 10 10 10 9 9 10 11 12 13 15 17 19 21 22 24 25 26 28 28 29 28 27 26 25 23 22 21 19 18 17 16 16 16 17 17 17
75 69 63 52 43 35 30 29 30 32 35 37 38 38 38 38 38 39 39 40 40 40 41 41 41 41 41 40 40 40 39 38 37 35 32 30 29 28 27 25 23 20 18 16 14 12 10 10 9 9 9 10 10 9 8 9 9 9 8 7 7 6 7 8 9 9 9 9 9 9 9 9 9 10 12 14 16 18 19 21 23 26 28 32 35 37 38 39 38 37 36 34 32 29 26 23 20 19 18 17 17 18 18
74 69 64 54 45 36 31 30 30 32 35 37 38 38 38 39 39 39 39 40 40 41 41 41 41 41 41 41 40 40 39 38 37 35 33 31 30 28 28 26 24 22 20 17 14 12 10 9 8 7 7 7 9 10 9 7 6 7 7 7 7 7 7 7 8 9 9 9 9 9 8 9 9 10 12 14 16 18 20 23 26 29 33 38 41 43 45 46 46 46 45 44 42 39 35 30 26 23 21 20 20 20 21
Wind_Speed
6 5 5 5 5 4 4 5 5 5 4 4 4 4 4 4 4 4 4 4 4 4 4 4 4 4 5 5 5 5 5 5 5 5 4 4 4 4 4 4 3 3 3 3 3 3 3 4 4 4 2 1 2 2 3 3 2 2 3 4 5 6 6 7 7 7 7 7 6 5 6 6 6 7 8 8 8 7 8 8 9 10 11 11 11 11 11 10 10 9 9 8 7 6 6 6 7 7 8 8 8 7 7
5 5 4 4 4 4 4 4 4 4 4 4 4 4 4 5 5 5 5 5 5 5 5 5 5 5 5 6 7 7 7 7 7 7 6 6 5 4 3 3 3 3 3 3 3 3 4 4 5 5 5 3 3 3 4 5 4 3 3 4 5 6 7 7 8 7 7 6 7 7 7 7 6 7 8 8 8 7 6 6 7 7 8 9 9 10 10 10 11 10 10 10 9 8 7 7 7 7 7 7 8 8 8
5 4 4 4 4 4 4 4 4 5 5 5 5 5 5 5 5 6 6 6 5 5 6 6 6 6 7 7 8 9 9 10 10 9 8 7 6 4 3 3 3 3 3 3 4 4 4 5 5 6 6 6 5 5 5 6 6 5 4 5 6 7 7 8 8 8 7 6 6 7 8 7 7 8 8 9 9 9 8 7 6 6 6 7 7 7 8 9 9 10 10 10 11 10 10 9 8 8 8 8 8 8 8
5 4 4 4 4 4 4 5 5 5 5 5 5 5 6 6 6 6 6 7 6 6 6 7 7 8 8 9 9 10 10 10 10 10 9 8 7 5 4 4 4 3 3 3 4 4 5 5 5 6 6 7 6 6 6 7 8 8 7 7 7 7 8 8 8 8 8 7 6 7 8 8 8 8 9 9 10 10 9 9 8 8 8 7 7 7 7 7 7 8 9 10 10 11 11 10 10 10 9 9 9 8 8
4 4 4 4 4 4 5 5 6 6 6 5 5 6 6 6 7 7 7 7 7 7 7 7 8 8 9 9 10 10 10 10 10 10 9 9 8 7 6 5 5 5 4 4 4 4 5 5 6 6 6 7 7 7 7 7 8 9 9 9 9 8 8 8 8 8 8 7 7 6 7 8 8 9 9 10 11 11 11 10 9 9 9 8 8 8 8 7 7 7 7 8 9 10 10 11 11 11 10 10 10 9 9
4 4 4 4 4 5 5 6 6 7 6 5 5 6 6 7 7 7 7 7 7 7 8 8 8 8 9 10 10 10 9 9 9 9 9 9 9 8 7 7 6 6 6 5 5 5 5 5 5 6 6 6 7 7 8 8 9 10 10 10 9 8 8 8 8 8 8 7 7 7 8 8 8 9 9 10 11 11 12 11 11 10 10 9 9 9 9 9 8 8 7 6 7 8 9 10 11 11 11 11 10 10 10
4 4 4 5 5 6 6 6 7 7 6 5 5 6 6 6 6 7 7 7 6 6 7 8 8 9 9 10 10 10 9 9 9 9 9 9 9 9 8 8 8 7 7 6 6 5 5 5 5 5 5 6 7 8 8 9 9 10 9 9 9 8 8 8 8 8 8 7 7 7 8 8 8 8 9 9 10 10 11 11 12 12 12 11 10 9 9 9 10 9 9 8 7 6 7 8 10 11 11 11 11 11 11
4 4 5 5 6 6 7 7 7 7 6 5 6 6 6 6 6 6 6 6 5 5 6 7 8 9 10 10 10 10 9 9 9 9 10 10 10 10 10 9 9 9 9 8 7 6 6 5 5 5 5 6 7 8 9 9 9 9 8 8 8 8 8 8 8 8 8 7 7 7 8 8 8 8 8 9 9 9 9 10 11 11 12 11 11 10 10 9 10 10 10 9 9 8 7 6 7 8 10 10 11 11 11
4 4 5 5 6 7 7 8 8 8 7 6 5 5 5 5 6 6 6 6 6 6 7 7 9 10 10 10 10 10 10 9 9 10 10 10 10 11 11 11 11 10 10 9 8 7 7 6 5 5 5 6 8 9 10 10 9 8 8 8 8 8 9 9 9 9 8 7 6 7 8 8 8 8 9 9 9 9 9 9 9 10 11 11 11 11 10 10 10 10 10 10 10 10 9 8 7 7 7 8 9 10 10
4 4 5 6 6 7 8 8 8 8 8 7 6 5 5 5 6 7 8 8 8 8 8 8 9 10 10 10 10 10 10 10 10 10 10 10 10 11 11 11 11 11 10 9 9 8 7 6 6 6 6 8 9 10 11 10 9 8 7 7 8 9 9 10 10 10 9 8 7 7 8 9 9 9 9 10 10 10 10 10 10 10 10 10 10 10 10 10 10 10 10 11 11 11 10 10 9 8 7 7 7 7 8
4 4 5 6 6 7 8 8 8 8 8 8 7 7 7 7 7 8 9 10 9 9 8 9 9 10 10 10 10 10 10 10 10 10 10 10 10 11 11 11 11 11 10 9 8 7 7 6 6 7 8 9 10 11 11 11 9 8 7 8 9 10 10 10 11 11 10 9 8 8 9 9 9 10 10 11 11 11 11 11 11 10 10 10 9 9 9 10 10 10 10 10 11 11 11 10 10 10 10 9 8 7 6
4 5 5 6 7 7 8 8 9 9 8 8 8 8 9 9 10 10 10 10 10 9 9 9 9 10 10 10 10 10 10 10 10 11 11 11 11 11 11 11 11 11 10 9 8 7 7 7 7 8 8 10 10 11 11 11 9 8 8 9 9 10 10 11 11 11 11 10 9 9 9 9 10 10 10 11 11 11 11 11 11 11 11 10 10 9 9 9 9 9 10 10 10 10 10 10 10 10 11 11 10 9 8
5 5 6 6 7 8 9 9 9 10 9 9 9 10 11 11 12 11 11 10 10 11 10 10 10 10 10 10 10 10 10 10 10 11 11 12 11 11 11 11 11 10 10 9 8 7 7 7 8 8 9 10 10 11 10 10 10 9 9 9 10 10 11 11 11 11 11 10 9 9 9 10 10 10 11 11 11 10 11 11 11 11 11 11 10 10 9 9 9 9 9 9 10 10 10 10 9 9 10 10 11 11 11
5 6 6 7 7 8 9 10 10 10 10 10 10 10 11 12 13 12 11 11 11 12 12 12 12 12 11 11 10 10 10 11 11 11 12 12 12 12 11 11 11 11 10 9 8 8 8 8 8 9 9 10 10 10 10 10 10 9 9 9 10 10 11 11 11 11 11 11 10 9 10 10 10 11 11 11 11 11 10 10 10 11 11 11 10 10 10 10 9 9 9 9 9 10 9 9 9 9 9 10 10 11 11
5 6 6 6 7 8 9 10 10 10 10 10 9 10 11 12 13 13 12 12 12 12 12 12 12 12 12 11 11 11 11 12 12 12 12 13 13 13 12 11 11 11 10 10 9 9 9 9 9 9 9 9 9 9 9 9 9 9 9 9 10 10 11 11 11 11 11 12 11 11 11 11 11 11 11 11 11 11 10 10 10 10 10 10 10 10 10 10 9 9 9 9 10 9 9 8 8 9 10 10 10 10 10
5 5 5 5 6 7 8 9 9 10 10 9 9 9 10 11 13 13 12 11 11 12 12 12 12 12 12 12 12 12 12 12 12 12 12 12 13 13 12 11 11 11 11 10 10 10 10 9 9 9 9 9 9 9 9 9 9 9 9 9 9 10 10 11 11 11 11 12 12 12 12 12 12 12 12 11 11 10 10 10 10 10 9 10 10 10 10 10 9 9 10 10 10 9 9 9 8 9 9 10 10 10 10
4 4 4 5 6 7 7 8 9 9 9 9 8 8 9 10 11 11 11 9 9 10 12 12 12 12 12 12 12 12 12 12 11 11 11 12 13 12 12 11 11 11 11 11 11 10 10 10 9 8 8 8 8 8 8 9 9 9 8 9 9 10 10 11 11 11 11 12 12 12 12 12 12 12 12 12 11 11 11 10 10 10 9 9 9 9 9 9 9 9 9 9 9 9 9 9 9 9 9 9 9 10 11
4 4 4 5 5 6 7 7 8 8 9 8 7 6 7 8 10 10 10 8 8 9 11 11 11 11 11 11 12 12 11 11 10 10 10 11 12 12 12 11 11 12 12 12 11 11 10 10 9 8 8 8 8 8 9 9 9 8 8 8 9 9 10 11 11 11 11 12 12 12 12 12 12 12 13 13 12 12 12 11 11 10 10 9 9 9 9 9 9 9 9 10 10 9 9 9 9 9 9 9 9 10 11
4 4 4 4 4 5 6 7 8 8 8 8 6 5 5 7 8 9 9 7 7 8 10 11 11 10 10 10 10 10 9 8 8 8 9 10 11 12 12 11 12 12 12 11 11 11 10 10 9 9 8 8 8 9 9 9 9 8 8 8 9 9 10 11 11 11 11 12 12 12 12 12 12 12 12 12 13 12 12 12 12 11 10 10 9 9 9 9 9 9 9 9 10 10 9 9 9 9 9 9 9 10 11
4 3 3 3 3 4 5 6 7 8 8 7 6 5 4 6 7 8 8 7 6 8 10 10 10 9 9 9 8 7 7 7 7 8 9 9 10 11 11 11 11 11 11 11 10 10 10 10 10 9 9 9 9 9 9 9 8 8 8 8 9 9 10 11 11 11 11 11 11 12 12 12 12 12 12 12 12 12 12 12 12 11 10 10 9 9 9 9 9 9 8 8 9 9 9 9 9 9 9 9 9 10 10
3 2 2 3 3 3 4 6 8 9 9 8 6 4 4 5 7 7 7 6 7 8 10 9 9 8 7 6 6 6 6 7 8 8 9 10 10 10 10 10 10 10 10 10 9 9 10 10 10 9 9 9 9 9 9 9 9 8 8 8 8 9 10 10 11 11 11 11 11 11 12 12 12 11 11 12 12 12 12 12 12 11 11 10 9 9 9 9 9 9 9 8 8 8 9 9 9 9 9 9 9 9 9
2 1 2 2 2 3 4 6 8 9 9 8 6 4 3 5 6 6 6 6 7 8 8 7 6 6 5 5 6 7 8 8 9 9 9 9 9 9 9 9 9 9 9 9 9 9 9 9 9 9 9 9 9 9 9 9 9 8 8 8 8 9 9 10 11 11 11 11 11 11 11 12 12 11 11 11 11 11 12 11 11 11 11 10 10 9 9 9 9 9 10 9 9 9 10 10 10 10 10 10 10 9 9
2 2 2 2 2 3 5 7 8 10 10 8 6 3 2 4 5 5 5 6 6 5 5 4 3 3 4 5 6 8 9 9 9 8 8 7 7 8 8 8 8 8 8 8 8 8 8 8 9 9 9 9 9 9 10 9 9 9 8 8 8 8 9 10 10 11 11 11 11 11 11 12 11 11 11 11 11 11 11 11 11 11 11 11 10 10 10 9 9 9 10 10 10 10 11 11 11 10 10 10 10 10 10
3 3 2 2 3 4 6 8 9 10 10 8 5 2 0 1 3 3 4 4 4 3 2 1 2 2 4 5 6 7 8 8 8 7 7 7 7 7 7 7 8 8 8 8 8 8 8 8 8 9 9 9 9 9 10 10 9 9 8 8 8 8 8 9 10 10 11 11 11 11 11 11 11 11 11 11 11 11 11 11 11 11 11 11 11 10 10 10 9 9 10 10 10 11 11 11 11 11 11 10 10 10 11
5 4 2 3 4 5 7 8 9 10 9 7 3 2 3 2 1 1 1 1 1 1 1 2 3 4 4 5 6 6 7 7 7 7 7 8 7 7 7 7 7 7 7 7 8 8 8 8 8 9 9 9 9 9 10 10 10 9 9 8 8 8 8 9 10 10 11 11 11 11 11 11 11 11 11 11 11 11 11 11 11 11 11 11 11 11 10 10 9 10 10 10 10 10 10 10 10 10 10 10 10 10 11
6 5 4 4 5 6 7 8 9 8 7 4 3 4 5 4 2 2 1 0 1 2 4 5 6 6 6 6 6 6 7 7 7 8 8 8 8 7 7 7 7 7 7 7 7 8 8 8 8 8 9 9 9 9 9 10 10 10 9 8 8 8 9 9 10 10 11 11 11 11 11 11 11 11 11 10 10 10 10 10 10 10 10 10 10 10 10 10 10 9 10 9 9 9 9 10 10 10 10 10 10 10 10
6 6 5 6 7 7 8 8 7 6 5 3 4 5 5 4 3 3 2 3 4 5 6 7 7 7 7 7 7 7 7 8 8 9 9 8 8 7 7 7 7 7 7 7 7 7 8 8 8 8 8 9 9 9 9 10 10 10 9 9 9 9 9 10 10 10 10 11 11 11 11 10 10 10 10 10 10 10 10 10 10 10 10 10 10 10 10 10 10 10 9 9 9 9 9 9 9 9 10 9 9 10 9
6 6 6 7 7 7 7 7 6 5 4 5 6 6 6 5 4 4 5 5 6 7 7 8 8 8 8 8 8 8 8 9 9 10 9 9 9 8 8 8 7 7 7 7 7 7 7 7 8 8 8 8 9 9 9 10 10 10 10 9 10 10 10 10 10 10 10 10 10 10 10 10 10 10 10 10 10 10 10 10 10 9 9 9 10 10 10 10 10 10 9 9 9 9 9 9 9 9 9 9 9 9 8
7 6 6 7 8 8 7 6 5 5 6 6 6 7 7 7 6 6 6 7 7 8 8 8 9 9 9 9 9 9 10 10 10 11 11 10 10 10 9 9 9 8 8 7 7 7 7 7 8 8 8 8 8 9 9 10 11 11 10 10 11 11 11 11 11 10 10 10 10 10 9 9 9 9 9 9 10 10 10 10 10 9 9 9 10 10 10 9 9 9 9 9 9 9 9 9 8 8 8 9 8 8 8
7 7 7 8 8 7 6 5 6 6 7 6 6 7 8 8 8 7 7 7 8 9 9 9 9 9 10 10 10 11 11 11 12 12 12 12 12 12 12 11 10 10 9 8 8 8 8 7 8 8 8 8 9 9 9 10 11 11 10 11 11 11 11 11 10 10 10 10 9 9 9 9 9 9 9 10 10 10 10 10 10 10 10 10 10 11 11 10 9 8 8 8 9 8 8 8 8 8 8 8 8 8 8
7 7 8 9 8 7 6 6 7 7 7 6 7 7 8 8 8 8 8 8 8 9 9 9 10 10 10 11 11 12 12 13 13 14 14 14 14 14 14 13 12 11 10 10 9 9 8 8 8 8 8 8 9 9 9 10 10 10 10 10 10 10 10 10 10 10 10 9 9 9 9 9 10 10 10 10 10 11 11 11 11 11 11 11 11 11 11 11 10 9 8 8 8 9 8 8 8 8 8 8 8 8 8
8 9 10 9 8 6 6 6 7 7 7 7 7 7 8 8 8 8 8 8 8 8 9 9 10 10 11 11 12 12 13 13 14 15 15 15 15 15 15 14 13 12 11 11 10 9 9 9 9 9 9 9 9 9 9 10 10 10 10 10 9 9 9 9 9 9 9 9 9 9 9 10 10 10 11 11 11 11 11 11 11 11 11 11 11 11 11 11 11 10 9 9 8 9 9 9 9 9 9 8 9 9 9
9 10 11 9 7 5 5 6 7 7 7 7 7 7 7 7 7 7 7 7 7 8 9 9 10 10 11 12 12 13 13 14 15 15 16 16 16 16 15 15 14 13 12 11 10 10 9 9 9 9 9 9 9 8 9 9 9 10 10 10 9 9 9 9 9 9 9 9 9 9 9 10 10 11 11 11 11 11 11 11 11 11 11 11 11 11 11 11 11 11 10 9 9 9 9 9 9 9 9 9 9 9 9
11 11 10 8 6 5 5 5 7 8 8 8 8 7 7 7 6 6 6 6 7 8 9 10 10 11 11 12 13 13 14 14 15 16 16 17 17 16 16 15 14 13 11 10 10 9 9 9 9 9 9 9 8 8 7 8 9 10 11 11 11 10 9 9 9 9 9 8 8 8 9 9 10 11 11 11 11 11 11 11 11 11 11 11 11 11 11 12 12 11 11 10 10 10 10 10 10 10 10 10 10 10 10
12 11 9 8 7 6 6 7 8 9 9 8 7 7 6 6 6 6 5 6 7 9 9 10 10 11 12 13 13 14 14 14 15 16 17 17 17 17 16 15 14 13 11 10 9 9 9 9 9 9 9 8 7 7 7 9 10 11 12 12 12 11 10 10 10 9 9 9 9 9 9 10 11 11 12 12 12 12 12 12 12 12 12 12 12 12 12 12 12 12 12 12 11 11 11 11 11 11 11 11 11 11 11
12 11 10 9 9 8 8 8 10 10 9 8 7 7 6 6 5 5 5 6 8 9 9 10 10 11 12 13 14 14 14 14 15 16 16 17 17 17 17 16 14 13 11 10 9 9 8 8 8 8 8 7 6 7 8 10 12 13 13 13 13 13 12 11 11 11 11 11 11 11 11 12 12 13 13 13 14 13 13 13 13 13 13 13 12 13 13 13 13 13 13 13 13 12 12 12 12 12 12 13 13 13 13
13 12 11 11 10 10 9 10 11 11 9 8 7 7 6 5 5 5 5 6 8 9 9 10 11 12 13 13 14 14 14 14 15 16 16 17 17 17 17 16 15 14 12 11 10 9 9 8 8 7 7 6 6 7 9 11 13 14 14 14 14 14 13 13 13 13 13 14 14 14 14 14 14 14 14 15 15 15 15 15 15 15 14 14 14 14 14 14 14 14 14 14 14 14 13 13 13 13 13 14 14 15 15
14 13 13 12 11 11 11 12 12 11 10 9 8 7 6 6 5 5 5 6 7 8 9 9 10 12 13 13 14 14 14 14 15 16 17 17 18 18 17 17 16 14 13 12 11 10 9 8 7 7 6 5 6 7 9 11 13 14 15 15 15 15 14 14 14 14 15 15 16 16 16 15 15 14 15 15 15 15 16 16 16 16 16 15 15 15 15 15 15 14 15 15 15 15 14 14 14 14 15 15 15 16 16
15 14 14 13 12 12 12 13 12 11 10 9 8 7 6 5 5 5 5 6 7 8 8 9 10 12 13 14 14 14 14 15 15 16 17 18 18 18 18 18 17 16 14 13 11 10 10 8 7 6 6 5 5 7 9 12 13 14 15 15 15 15 15 15 15 15 16 16 16 16 15 15 14 14 14 14 15 15 15 16 16 16 16 16 15 15 15 15 14 15 15 15 15 15 15 15 15 15 15 16 16 16 16
15 15 14 14 13 13 14 13 12 11 10 9 8 7 6 5 4 5 5 6 7 7 7 9 10 12 13 14 14 15 15 15 16 17 17 18 19 19 19 19 18 17 16 14 12 11 10 9 8 7 6 5 6 7 10 12 14 15 15 15 15 15 15 15 15 15 15 16 15 15 14 13 12 12 13 13 14 15 15 15 15 15 15 15 15 14 14 14 14 14 14 14 15 15 15 15 15 15 15 16 16 17 17
15 15 15 14 14 14 15 14 13 12 11 10 8 7 6 4 4 4 5 6 6 6 7 9 11 12 13 14 14 15 15 16 16 17 18 18 19 19 19 19 19 18 17 15 13 11 10 9 8 7 7 6 7 9 12 14 15 15 15 15 15 16 16 16 16 16 16 16 16 15 13 12 12 12 13 14 15 15 15 15 15 15 15 14 14 13 13 13 13 13 13 13 14 14 14 15 15 15 15 15 16 17 17
16 16 15 15 15 15 15 14 13 12 11 10 8 7 5 4 3 4 4 5 5 6 7 9 11 12 13 14 14 15 16 16 17 17 18 18 19 19 20 20 20 19 18 16 13 11 10 9 9 8 7 7 8 11 14 16 17 17 16 16 16 16 16 16 16 17 17 17 16 15 14 13 13 13 14 15 16 16 16 16 15 15 15 14 14 13 13 13 12 12 12 13 13 13 13 14 14 14 15 15 15 16 17
17 16 16 17 16 16 16 15 14 13 12 10 9 7 5 4 3 3 3 4 4 6 8 10 11 12 13 14 15 15 16 16 17 17 18 19 19 19 20 20 20 20 19 17 14 12 10 9 9 8 7 8 9 12 15 17 17 17 17 16 16 17 17 17 17 17 18 18 18 17 16 15 15 16 17 17 17 17 17 16 16 16 15 15 14 14 13 13 13 13 12 12 12 12 13 13 13 14 14 14 15 16 17
19 18 17 18 17 17 16 15 15 14 12 11 9 7 6 5 4 3 3 3 4 6 8 9 11 12 13 14 15 15 16 17 17 18 18 19 19 19 20 20 20 20 19 18 15 13 11 10 9 8 8 8 11 13 16 17 16 16 15 16 16 17 17 17 17 18 19 19 19 19 18 18 18 18 18 18 18 18 17 17 17 17 16 16 15 14 14 13 13 13 12 12 11 11 12 12 13 13 13 14 15 16 17
21 19 19 19 18 17 17 16 15 14 13 11 10 8 7 6 5 4 3 3 4 6 7 9 10 11 13 14 15 15 16 17 17 18 18 19 19 19 20 20 20 20 19 18 16 14 12 11 11 10 9 10 11 14 16 16 15 14 14 15 16 17 17 17 18 18 19 20 20 20 19 19 19 19 19 18 18 18 18 18 18 17 17 16 15 14 14 14 14 13 13 12 11 11 11 12 12 13 14 14 15 16 15
22 21 21 20 19 18 17 17 16 15 13 12 10 9 8 7 6 4 2 3 4 6 7 8 9 11 12 13 14 15 16 17 17 17 18 18 19 19 19 20 20 20 19 18 17 15 14 14 13 12 11 11 13 14 16 15 14 13 12 13 14 16 17 17 18 18 19 19 20 20 19 19 19 18 18 18 18 18 18 18 18 18 17 16 15 15 14 14 14 14 13 12 11 10 10 11 12 13 13 14 14 14 14
23 22 22 21 20 19 18 17 16 15 14 12 11 9 8 7 6 3 2 3 4 5 6 7 8 10 12 13 14 15 16 16 17 17 18 18 18 19 19 20 21 20 20 18 17 16 15 15 14 13 12 13 14 15 16 16 15 14 12 12 13 15 16 17 18 18 19 19 19 19 19 18 18 18 18 18 18 18 18 18 18 18 17 16 16 15 14 14 14 14 13 12 11 11 10 10 11 12 13 13 13 13 13
24 23 22 22 21 20 19 18 17 16 14 13 11 10 9 7 5 3 2 2 3 4 5 6 8 10 11 13 14 14 15 16 17 17 18 18 18 18 20 20 21 21 20 19 17 16 16 16 15 14 14 15 15 16 16 16 15 14 13 13 13 14 16 17 18 18 19 19 19 19 19 18 18 18 17 17 17 17 17 17 17 17 16 16 15 15 15 14 14 14 14 13 12 11 11 11 11 11 12 13 13 13 13
24 23 23 23 22 21 20 19 18 17 15 13 12 10 9 7 5 3 2 1 2 3 4 6 8 9 11 12 13 14 15 16 16 17 18 19 19 20 21 22 22 21 20 18 17 16 16 17 17 16 16 16 16 16 16 16 15 14 14 13 13 14 15 16 17 18 18 19 19 20 19 19 18 18 17 16 16 16 16 16 16 16 15 15 15 14 14 14 14 14 14 14 13 13 12 12 11 10 11 12 12 13 13
24 23 23 23 23 22 21 20 19 17 16 14 12 11 9 7 5 3 2 1 1 3 4 6 8 9 10 12 13 14 15 15 16 17 18 20 21 22 23 24 23 22 20 18 16 16 16 18 18 18 17 17 16 16 15 15 14 13 13 13 13 13 14 15 16 17 18 19 19 19 20 20 19 18 17 16 15 15 15 15 15 14 14 14 13 13 13 13 14 14 14 14 14 14 13 13 12 11 10 10 11 12 13
24 23 23 24 23 23 21 20 19 18 16 14 13 11 9 7 5 4 3 1 1 2 4 6 7 9 10 11 13 14 14 15 16 17 19 20 21 22 23 25 25 23 20 18 16 15 16 17 18 18 17 16 15 15 14 14 13 13 12 12 13 13 14 15 16 17 17 18 18 19 19 20 20 19 17 16 15 14 14 13 13 13 13 13 12 12 13 13 13 13 13 13 14 14 14 13 13 12 12 11 12 13 14
24 23 23 23 24 23 22 21 20 18 17 15 13 12 10 8 6 5 3 2 2 2 4 5 7 8 10 11 12 13 14 15 16 17 18 19 21 22 24 25 23 21 20 17 14 13 14 16 19 19 17 16 15 14 14 13 12 12 12 12 13 13 14 15 15 16 16 17 17 18 18 19 19 19 18 17 15 14 13 12 12 12 12 11 11 12 12 12 13 13 13 13 13 13 13 14 14 14 14 14 14 14 14
24 23 22 23 24 24 23 22 20 19 17 16 14 12 10 8 7 5 4 3 2 2 3 5 7 8 9 11 12 13 14 15 15 16 18 19 21 22 23 21 18 17 17 13 11 11 12 17 21 21 17 16 16 16 15 13 12 12 12 12 12 13 13 14 15 15 15 16 16 17 17 17 18 18 18 18 17 16 14 12 11 10 10 10 10 11 11 12 12 12 12 12 13 13 14 14 15 15 15 15 15 15 15
24 22 22 23 24 24 23 22 21 19 18 16 15 13 11 9 8 7 5 4 3 2 3 5 6 8 9 10 11 13 13 14 15 16 17 18 20 20 18 17 17 17 16 13 9 9 14 21 24 23 19 19 19 18 16 14 12 12 12 12 12 13 13 14 14 14 15 15 15 16 16 16 16 17 18 18 18 18 16 13 11 10 9 9 10 10 11 11 11 12 12 12 13 13 14 15 16 16 17 16 16 15 16
24 22 22 23 24 25 24 23 21 20 19 17 15 14 12 10 9 8 6 5 3 3 4 5 6 7 9 10 11 12 13 14 15 16 17 18 19 19 18 18 20 19 15 13 11 11 16 23 26 25 21 22 22 20 17 15 14 13 13 13 13 14 14 14 15 15 15 15 15 15 15 16 16 17 17 18 18 18 17 15 13 11 9 9 9 9 10 10 11 11 11 12 12 13 14 15 16 17 17 17 16 16 17
24 22 22 23 25 25 24 23 22 20 19 18 16 14 13 11 10 8 7 5 4 3 4 5 6 7 8 10 11 12 13 14 15 16 17 18 18 19 20 19 16 11 7 10 12 15 19 24 26 25 22 24 23 21 18 16 15 15 15 15 15 15 16 16 16 16 16 16 15 15 15 16 17 17 17 17 17 17 17 16 14 12 11 10 9 10 10 10 11 11 11 12 13 13 15 16 17 18 18 18 18 18 18
24 22 22 24 25 25 25 23 22 21 20 18 16 15 13 12 10 9 7 5 4 4 4 5 6 7 8 9 10 11 13 14 15 16 16 17 18 19 20 20 18 14 8 9 13 18 22 26 22 17 19 24 24 22 20 19 18 17 16 16 16 17 17 17 17 17 16 16 16 16 16 16 17 17 17 17 16 15 15 15 14 13 12 11 11 11 11 11 11 12 12 13 14 15 15 17 18 19 19 20 20 21 21
24 22 22 24 25 26 25 24 23 21 20 18 17 15 14 12 10 9 7 5 5 4 5 6 7 7 8 9 10 11 12 13 14 15 16 17 18 19 20 21 22 22 21 18 18 19 21 23 20 18 22 26 26 24 22 21 20 19 18 18 18 18 18 18 17 17 17 16 16 16 17 17 17 17 17 16 15 15 14 13 13 13 13 13 13 13 13 13 14 14 14 15 16 16 17 18 19 20 21 21 22 22 23
23 22 22 23 25 26 26 25 23 22 20 19 17 16 14 12 10 9 7 6 5 5 5 6 7 8 8 9 10 11 12 12 13 14 16 17 18 19 20 21 22 22 22 22 22 21 20 18 18 20 21 22 25 26 25 23 22 21 20 20 19 19 18 18 17 17 17 17 17 18 18 18 18 18 17 16 15 14 13 13 13 13 14 14 15 16 16 16 16 17 17 17 18 18 19 20 21 22 22 23 23 24 24
23 22 22 24 25 26 26 25 24 23 21 19 17 16 14 12 11 9 8 7 6 6 6 6 7 8 8 9 10 10 11 12 13 14 15 17 18 19 20 20 20 20 21 21 21 21 21 19 18 17 17 19 23 27 27 26 24 23 22 21 21 20 19 18 18 17 17 17 18 19 19 19 19 18 17 16 15 14 13 13 13 13 14 15 16 17 17 18 18 18 19 19 20 20 21 22 23 24 24 25 25 25 25
24 23 23 24 26 27 27 26 25 23 22 20 18 16 14 13 11 10 9 8 7 7 7 7 7 8 9 9 10 10 11 12 13 14 15 16 17 18 20 20 20 20 21 20 20 20 19 19 19 18 17 19 21 24 27 28 27 25 24 23 23 22 21 19 18 18 18 18 19 19 20 20 19 19 17 16 15 14 13 13 13 14 15 15 16 17 17 18 18 18 19 20 20 21 23 24 25 25 26 26 27 27 27
Wind_Direction
102 100 97 94 88 83 78 74 71 67 63 60 56 53 49 43 38 33 25 21 18 14 9 10 18 24 26 26 28 30 34 39 43 46 45 45 43 42 41 38 36 32 26 19 9 355 344 333 327 325 340 11 12 357 346 344 355 16 21 13 8 6 4 2 2 6 13 17 14 9 6 8 3 354 350 353 360 5 4 2 360 357 355 355 355 355 355 355 356 357 357 359 3 6 2 358 360 359 352 350 350 353 358
105 101 95 88 83 78 73 69 63 58 53 49 45 41 36 33 31 27 20 19 17 13 9 11 18 24 25 24 24 24 25 29 34 39 41 42 42 39 31 25 20 14 5 355 346 340 336 335 333 330 331 336 346 347 341 336 337 355 30 29 17 7 0 356 353 352 355 3 3 357 352 353 352 348 343 344 346 348 353 358 356 353 353 352 351 351 351 351 350 350 350 350 351 352 354 354 356 356 351 349 348 349 351
104 97 88 81 75 70 64 58 53 48 43 39 37 34 33 35 36 32 26 22 20 20 23 22 23 25 27 27 27 26 26 26 29 31 34 38 41 41 34 19 7 359 350 341 333 329 328 329 332 334 333 333 336 339 339 333 332 339 5 25 20 7 356 349 344 341 341 344 350 350 345 342 343 342 339 337 337 338 341 344 343 342 345 345 344 345 346 348 347 346 345 345 345 345 346 347 348 349 348 349 349 350 350
102 95 85 79 72 64 54 48 42 38 36 35 36 36 36 36 39 40 36 26 22 22 24 22 22 23 28 30 30 28 27 27 26 24 24 24 27 30 28 18 4 351 342 335 330 325 324 324 329 333 335 330 330 332 335 331 329 334 345 1 6 360 348 340 334 331 329 331 337 343 341 337 336 335 333 332 331 331 333 333 333 334 337 334 333 335 338 341 342 341 340 341 340 339 340 340 342 343 345 346 348 349 351
100 93 82 74 66 56 47 40 35 31 32 38 43 45 42 42 43 44 42 32 23 19 16 17 19 23 28 31 31 30 28 27 25 23 19 16 15 15 17 15 8 357 348 340 334 329 326 326 328 332 334 330 328 331 336 333 332 334 340 349 353 350 341 332 326 323 322 323 330 337 338 333 332 331 330 329 328 328 329 329 328 327 328 326 326 327 327 326 328 331 333 335 335 335 335 335 336 337 339 341 343 345 347
94 81 70 61 53 45 38 33 30 30 36 41 45 44 43 44 44 45 44 37 26 15 11 13 19 27 32 32 30 29 28 28 27 24 21 17 15 14 15 15 13 8 359 352 346 341 336 334 335 338 338 334 335 341 347 343 339 339 343 348 350 346 337 328 323 320 317 321 328 335 334 330 329 330 329 328 327 328 329 328 327 324 322 321 322 323 321 320 319 318 319 321 326 330 331 331 331 331 332 335 337 339 341
80 64 53 45 39 33 30 29 28 30 36 41 41 40 41 38 38 40 38 36 27 16 9 10 19 30 34 32 29 28 29 31 31 29 27 25 23 22 22 22 21 18 13 7 1 356 352 350 350 350 348 346 350 357 358 352 346 345 349 353 352 346 339 332 327 322 318 323 330 332 329 326 326 326 325 323 322 324 326 326 325 323 320 319 318 319 319 319 319 318 317 316 317 320 322 325 327 327 327 329 331 333 335
64 51 40 34 28 25 24 25 27 31 36 38 40 41 40 27 24 28 31 28 20 9 6 6 16 25 30 28 27 28 31 35 37 37 36 34 33 32 31 29 28 26 23 18 14 10 8 7 7 5 0 358 2 4 2 357 353 353 358 360 356 350 345 341 335 328 324 329 332 328 324 322 322 321 314 311 311 314 317 317 319 320 319 318 317 316 316 318 319 318 318 318 317 314 311 312 315 318 322 324 326 328 328
53 41 32 27 24 23 24 25 26 28 31 33 38 40 34 24 15 12 13 11 6 2 359 360 10 18 22 25 28 31 36 40 43 44 43 41 40 38 36 34 33 31 28 25 21 19 18 17 16 11 4 3 5 4 1 357 357 1 7 4 360 355 351 348 343 337 333 336 331 323 320 317 315 312 307 304 304 305 305 305 306 308 312 313 315 316 315 316 316 316 317 319 318 315 311 308 303 304 310 317 320 322 323
43 33 28 26 26 27 28 27 27 27 29 30 31 29 22 18 11 5 3 1 360 358 355 1 10 17 22 27 33 37 42 46 48 47 46 43 41 39 37 35 34 33 31 28 24 22 20 18 14 8 4 4 4 3 359 355 357 5 11 7 1 357 355 352 348 343 340 341 335 325 320 315 310 307 305 304 302 300 300 299 297 298 303 307 311 313 313 314 315 315 316 317 317 316 315 312 308 305 303 303 306 312 317
42 36 33 33 34 35 34 32 30 29 29 29 27 22 18 15 14 11 8 6 6 7 9 12 17 24 30 35 39 43 47 49 49 47 44 41 39 36 35 33 32 32 29 26 23 20 17 14 11 7 4 2 1 359 354 349 352 2 10 7 2 357 354 352 349 345 343 344 339 329 322 319 314 309 306 303 303 303 301 299 298 298 299 302 304 305 306 309 309 310 313 312 313 313 314 314 314 313 310 306 301 296 297
49 46 45 43 43 42 39 36 32 31 32 32 31 29 29 29 29 25 21 21 22 26 30 31 34 36 40 42 44 45 46 47 45 42 39 35 32 29 28 28 29 28 26 22 18 15 13 12 10 7 1 357 356 353 347 343 345 355 5 4 360 356 353 350 347 343 341 342 339 330 323 321 318 313 310 308 308 309 307 304 302 300 299 300 300 300 299 299 301 303 304 305 307 309 309 310 314 316 316 315 312 307 296
60 57 54 51 48 45 41 37 34 33 33 34 38 43 46 45 42 38 36 37 40 44 47 47 47 46 45 45 44 43 41 40 38 34 31 27 23 20 19 20 22 22 20 17 13 10 11 11 9 4 357 352 349 345 341 337 339 347 357 359 357 353 349 346 343 340 338 338 335 328 322 320 316 313 312 311 312 313 313 310 308 305 302 302 299 296 298 297 297 297 296 298 300 301 301 307 312 314 313 317 317 314 309
67 64 60 54 48 43 39 37 35 35 35 39 46 54 55 51 47 45 45 49 53 55 55 53 51 48 46 45 41 38 34 32 28 24 21 17 14 11 10 11 13 14 14 11 8 7 9 9 6 360 352 347 343 339 335 332 335 343 352 354 353 350 346 342 340 337 334 332 329 324 319 315 312 311 312 315 317 317 317 315 313 310 308 308 304 300 300 300 298 295 294 293 293 295 297 305 310 310 310 311 310 309 310
69 64 57 50 43 39 37 36 36 36 36 41 52 59 58 52 49 48 50 55 59 59 57 53 49 46 44 41 38 34 30 26 22 16 12 8 6 4 2 2 4 6 7 6 5 5 6 6 3 357 350 343 338 333 330 329 334 342 349 351 349 347 343 340 337 335 332 329 326 322 317 315 314 314 315 317 318 317 316 315 314 312 313 314 312 309 306 304 301 299 298 297 297 297 298 299 300 301 303 301 300 299 302
60 51 42 38 35 33 33 34 35 35 34 40 51 59 56 52 49 48 49 54 58 58 55 49 45 42 39 37 34 31 27 24 18 10 3 359 357 356 356 356 357 359 1 2 1 2 3 3 1 355 348 341 335 330 328 328 335 342 348 348 347 345 342 338 336 334 332 329 325 322 319 318 317 316 317 317 316 315 314 314 313 312 313 315 316 315 314 312 307 304 304 304 304 302 297 293 290 290 291 292 295 298 301
38 25 20 22 25 26 29 31 32 31 30 34 44 53 53 51 48 46 46 49 53 54 51 45 40 36 34 33 30 27 24 20 13 4 355 349 348 349 350 350 352 354 356 357 358 358 360 1 359 355 349 343 337 333 330 332 338 345 348 347 345 343 340 338 335 333 331 328 325 323 322 321 319 319 318 317 315 314 314 314 314 314 315 316 316 317 316 316 314 311 309 310 308 304 299 295 291 288 288 289 294 299 301
14 3 3 10 17 21 24 26 25 24 23 26 33 42 47 49 47 44 41 42 48 50 47 42 36 32 29 28 26 24 20 14 6 357 347 341 340 341 343 345 347 349 351 351 352 354 356 358 358 356 352 347 341 336 334 337 343 347 348 347 345 342 339 337 335 333 331 328 326 325 323 322 321 321 320 319 318 317 316 316 316 317 317 316 315 314 314 314 314 315 315 315 312 309 308 305 301 297 296 297 300 302 302
357 352 352 359 8 17 20 20 17 15 14 17 22 30 39 45 45 41 36 37 44 48 45 39 33 29 26 23 21 18 12 3 354 344 335 332 331 333 336 339 341 342 343 344 345 349 352 355 357 355 352 349 344 339 337 340 346 350 350 347 345 341 338 335 333 332 330 328 327 326 324 324 324 323 322 320 319 319 318 319 319 318 318 316 314 312 310 310 311 313 314 314 315 316 315 313 310 309 309 310 309 307 303
345 337 337 344 358 12 16 13 8 3 3 9 14 21 32 41 43 39 32 32 41 45 40 34 29 25 20 16 11 5 354 343 332 324 319 319 322 325 329 332 333 334 334 336 340 344 348 351 353 353 351 347 343 339 338 341 346 350 350 347 344 340 336 333 332 331 329 328 328 327 326 326 325 325 323 321 320 320 320 320 320 320 319 318 315 311 309 306 307 308 307 307 310 311 309 308 307 306 304 303 302 301 301
327 309 310 320 340 1 8 4 358 353 352 1 9 15 25 37 38 35 27 29 37 39 34 26 19 15 9 2 351 338 326 320 316 314 314 316 319 322 325 327 328 328 330 333 337 342 345 347 348 348 346 344 342 339 338 341 346 350 350 347 343 338 335 332 330 330 329 328 328 327 327 326 326 325 323 322 321 321 322 322 322 322 322 320 317 314 311 306 303 302 300 296 293 292 291 290 288 285 284 285 283 284 292
293 262 273 288 314 342 353 352 348 345 344 353 2 11 24 36 35 30 24 24 29 31 26 16 6 357 347 334 321 313 314 315 317 318 320 323 326 328 329 330 331 331 333 335 339 341 342 343 343 343 342 341 339 338 337 339 344 349 349 346 341 337 333 331 330 329 328 328 328 328 327 327 326 325 325 324 323 323 323 324 324 324 324 323 322 319 315 308 302 300 301 295 288 283 280 280 280 279 279 279 278 278 280
261 236 238 252 282 317 332 338 338 338 339 346 352 2 25 41 37 29 22 17 15 15 13 1 343 330 321 313 310 312 319 324 328 331 335 338 340 340 340 339 339 339 340 341 342 343 342 342 341 340 339 338 337 336 335 336 341 346 347 343 339 335 332 330 329 328 328 328 328 328 328 326 326 326 326 325 324 324 325 325 325 325 325 324 324 323 318 315 310 307 304 300 295 291 287 288 290 291 289 285 284 284 280
252 241 226 231 264 298 318 327 332 334 334 336 336 327 214 66 49 35 22 7 355 341 325 302 306 320 324 322 324 328 333 338 342 346 350 353 354 352 349 348 346 346 345 346 346 345 344 343 341 339 337 336 335 334 332 333 336 341 343 342 338 335 332 330 329 328 328 328 328 328 328 327 326 327 326 327 326 326 326 325 325 325 326 326 326 325 323 322 319 314 309 303 300 299 296 296 296 298 297 294 292 289 286
255 256 251 256 280 301 316 323 327 327 325 321 305 237 207 189 126 82 40 329 315 315 343 9 13 8 360 352 349 350 352 354 356 360 2 3 1 358 356 353 351 349 349 348 347 346 345 342 340 338 335 334 333 331 329 329 331 335 338 339 338 335 333 330 329 328 327 327 327 328 328 327 327 327 327 328 328 327 327 327 328 329 330 330 330 328 326 323 318 313 312 307 303 301 300 299 298 298 300 299 297 294 291
255 271 287 295 302 309 314 316 317 315 307 292 243 202 199 194 169 139 139 105 45 43 44 40 34 29 23 17 13 12 11 11 11 12 11 10 8 5 2 359 356 354 351 349 348 346 345 342 338 335 332 330 329 328 326 324 326 329 333 337 338 337 334 331 329 328 328 328 328 328 328 328 328 328 329 330 330 330 330 332 333 335 335 335 333 328 324 320 315 312 312 310 306 303 300 298 297 297 297 300 300 299 297
249 272 292 300 302 302 300 300 300 292 275 237 192 178 181 174 149 115 90 67 59 55 51 48 45 41 38 35 31 28 26 26 25 24 21 18 16 13 10 6 2 359 355 352 349 346 343 340 336 332 329 327 325 324 322 321 321 323 329 336 340 339 336 332 329 329 329 329 329 329 329 328 329 331 332 332 332 333 334 335 338 340 338 335 329 324 322 321 320 318 318 316 313 310 304 301 298 297 297 300 301 302 303
235 256 275 283 284 282 280 279 272 255 227 192 171 162 154 139 115 93 77 69 65 62 59 56 54 51 48 45 42 40 38 37 35 33 29 25 22 19 17 13 8 4 358 354 349 345 342 337 333 329 326 324 322 321 319 317 317 321 328 337 341 341 337 334 332 332 333 332 332 331 331 332 332 334 335 335 335 335 335 337 339 340 336 330 325 323 325 326 327 327 326 323 320 317 313 310 306 305 305 305 307 307 306
223 238 255 262 264 262 259 249 232 211 192 174 161 145 126 112 100 89 82 77 74 69 65 61 59 56 53 51 48 46 44 42 40 36 32 28 24 21 18 15 11 6 360 354 349 344 339 335 330 326 323 321 320 318 316 315 316 321 331 339 343 342 339 337 337 337 338 336 335 335 335 336 336 335 335 335 335 334 333 334 335 335 332 328 325 325 328 330 330 329 327 324 322 319 317 314 313 311 310 309 307 304 296
216 228 241 248 248 243 230 211 194 184 172 161 145 125 110 103 98 94 89 83 77 72 67 63 59 56 54 50 48 45 43 41 39 35 31 27 23 20 17 14 10 5 359 354 348 344 339 334 329 325 322 321 319 317 315 314 317 325 335 343 345 344 341 340 341 342 341 340 340 339 339 338 337 336 334 334 332 331 331 331 331 330 329 327 325 325 326 327 327 326 323 319 317 316 313 311 308 305 304 304 301 295 287
215 226 235 238 233 220 200 181 172 166 158 146 128 114 107 104 102 98 92 86 79 74 68 62 57 52 49 46 43 41 39 38 36 33 30 26 23 19 16 12 8 3 358 353 349 345 340 335 330 327 324 322 319 317 315 316 320 330 342 349 351 348 345 345 345 344 343 342 342 341 340 339 336 334 333 331 330 329 328 327 326 325 325 323 322 321 321 322 322 321 319 314 315 314 309 307 307 306 306 308 308 305 298
217 225 230 228 219 200 178 163 159 158 152 139 127 117 111 108 105 101 94 87 81 74 67 59 52 47 42 40 38 36 34 34 33 31 29 26 23 19 16 11 7 2 358 354 350 345 341 337 333 329 326 324 320 318 318 321 328 339 351 358 358 355 350 347 346 344 342 342 341 340 338 336 333 331 330 329 329 328 327 326 325 323 321 320 320 319 319 318 318 318 318 318 314 308 305 307 312 316 314 312 311 311 309
219 222 223 218 210 193 173 161 160 160 153 142 132 125 119 114 108 101 94 86 78 69 62 54 48 42 38 35 34 32 31 31 31 29 28 26 23 20 15 11 7 3 359 355 352 347 342 337 334 330 328 325 323 323 327 335 344 353 359 3 3 358 352 347 344 342 340 340 338 337 335 334 332 330 330 330 329 329 327 326 324 323 321 319 318 317 317 316 314 314 315 315 312 309 307 307 311 314 310 308 308 308 305
219 219 217 214 211 206 192 175 169 164 157 147 138 133 127 119 109 99 90 79 69 62 56 50 45 39 35 33 31 30 29 29 29 28 27 25 23 19 16 12 8 5 2 359 355 350 344 340 335 332 330 328 330 336 348 359 4 5 3 2 360 357 352 347 344 341 340 338 338 337 336 335 334 333 332 332 331 330 329 326 324 322 320 319 317 316 314 313 311 311 310 309 308 307 308 308 308 306 304 299 299 300 298
217 216 215 215 218 219 208 186 173 168 160 151 144 139 133 122 109 96 83 71 62 56 52 47 41 37 34 32 30 29 28 28 28 27 26 25 23 19 16 13 11 8 7 4 360 354 348 343 339 336 334 335 344 2 17 20 16 10 4 360 358 356 355 352 348 346 344 343 342 342 343 342 340 338 336 335 333 332 329 327 324 322 319 317 315 313 312 310 309 308 307 306 305 305 305 305 302 299 297 296 294 293 293
214 214 215 218 222 222 211 188 175 169 163 155 150 145 136 123 109 93 79 66 59 54 49 44 39 36 33 31 29 27 27 27 27 27 26 25 23 20 17 15 13 12 11 8 5 360 354 349 345 343 343 351 9 29 33 27 19 11 4 360 359 359 360 358 356 353 351 349 348 348 348 346 344 342 339 337 334 332 329 326 323 320 318 315 313 311 310 308 307 306 304 303 302 302 301 301 300 298 295 296 295 293 292
208 212 216 221 224 221 207 186 176 170 165 160 156 151 141 128 114 99 81 68 61 55 48 42 38 35 33 30 28 26 26 26 27 27 26 24 23 20 17 16 15 15 13 12 8 5 2 359 357 356 360 13 32 40 33 23 15 9 4 1 1 2 3 2 360 358 356 353 351 350 349 347 345 342 339 336 333 331 327 324 321 318 316 314 311 310 308 307 305 304 302 301 299 299 300 298 298 297 295 295 294 294 295
205 210 217 221 223 217 200 183 176 173 169 166 163 157 147 137 126 110 90 74 65 56 48 42 37 35 33 30 27 25 24 25 26 26 25 24 23 21 18 16 16 15 15 12 11 10 11 11 11 14 20 31 40 35 23 13 8 4 3 2 3 4 4 4 2 360 358 356 353 350 348 346 344 341 338 335 332 329 326 322 319 316 313 311 309 308 306 305 304 303 301 300 298 297 298 298 297 296 294 294 293 294 295
206 211 216 220 219 209 193 181 177 176 174 172 169 163 154 148 138 119 96 80 68 58 49 42 37 35 32 29 26 24 23 24 25 25 23 23 22 20 18 16 15 16 15 13 13 14 18 22 26 31 36 38 32 20 8 2 360 0 2 3 4 4 5 4 3 1 359 356 353 350 347 345 343 340 336 333 331 328 325 321 317 314 311 309 307 306 305 304 303 302 302 301 300 299 299 300 299 297 296 296 295 294 294
211 213 216 217 213 202 188 181 180 181 179 177 174 169 162 156 142 117 95 80 69 58 49 41 36 34 31 28 25 23 22 23 24 24 23 22 21 20 17 16 15 15 14 14 15 18 23 30 37 43 44 38 22 6 357 352 354 358 3 4 4 4 4 3 1 359 357 355 353 350 348 346 343 340 337 335 334 331 328 323 319 315 311 309 306 304 303 302 303 304 304 305 304 303 303 302 301 300 300 299 297 295 295
215 216 217 215 208 197 187 184 184 185 184 182 179 175 168 159 136 107 88 76 66 54 45 38 35 32 29 27 24 22 22 23 23 23 22 21 20 19 17 15 14 14 14 15 16 19 26 34 41 46 45 34 16 360 352 350 353 358 3 4 3 2 1 360 358 355 353 353 352 352 352 350 347 345 343 342 340 338 334 329 325 320 316 313 309 306 303 301 302 303 303 304 304 304 303 302 302 302 301 301 299 298 296
218 217 217 213 204 194 188 187 189 190 189 188 185 180 173 161 133 107 88 74 61 48 39 34 31 28 25 24 22 21 21 22 22 22 21 21 20 19 17 15 14 13 13 15 16 20 26 35 41 44 41 27 10 356 351 351 354 358 1 1 360 358 357 355 353 351 350 350 352 353 355 355 354 352 351 350 348 344 340 335 331 327 324 320 316 311 306 302 300 300 300 300 301 303 303 303 302 302 302 302 302 300 298
222 220 218 211 202 193 189 190 192 193 192 191 189 185 178 167 143 119 101 79 58 44 35 30 27 24 22 21 20 20 20 21 21 21 20 20 19 18 16 15 14 13 13 14 16 20 24 31 37 38 33 18 3 354 352 353 356 357 357 355 353 352 351 350 348 346 346 347 350 353 355 357 357 357 355 354 351 347 343 340 336 333 329 326 322 316 311 305 302 299 299 300 302 304 306 306 305 305 306 306 304 302 301
227 225 220 212 201 193 189 192 195 196 195 194 191 188 184 176 161 144 123 86 58 43 33 27 23 20 19 19 19 19 19 20 20 19 19 19 19 18 16 15 14 14 13 13 15 18 21 25 28 28 22 8 358 353 352 354 355 353 350 347 345 344 344 343 343 343 343 345 347 350 353 355 356 356 355 353 350 348 345 342 339 335 332 328 325 320 315 309 305 302 302 303 306 309 311 313 313 313 313 311 308 306 306
230 228 222 213 202 193 191 194 197 198 198 196 193 190 188 185 178 164 138 88 57 43 32 24 18 16 16 17 17 17 18 18 18 18 18 18 17 17 16 15 14 14 14 13 14 16 17 18 19 18 11 360 352 350 351 352 351 348 343 338 336 336 336 337 338 339 340 342 344 346 349 351 352 353 352 351 349 348 346 344 340 337 334 330 327 323 319 314 310 307 306 306 308 311 316 319 320 319 317 315 313 313 315
232 229 222 212 202 194 192 196 199 201 200 199 195 192 192 192 187 174 139 79 53 40 29 20 14 13 14 15 16 16 16 16 17 16 16 16 16 16 15 15 15 15 15 14 14 15 15 15 15 12 4 354 348 347 347 347 345 341 335 331 329 328 328 331 334 336 337 338 340 342 344 347 349 350 350 350 349 348 346 344 341 338 335 333 331 328 325 320 317 315 314 312 311 313 317 320 323 324 321 320 321 323 327
232 228 221 211 201 195 194 198 202 203 203 202 198 196 197 198 193 177 125 67 47 34 23 15 12 10 11 13 15 15 15 15 15 14 14 15 15 14 15 15 16 15 15 15 15 14 14 14 13 10 1 353 347 344 343 341 339 335 330 326 324 323 323 326 330 332 333 334 335 338 341 344 347 349 350 350 349 348 346 343 341 338 337 336 335 334 332 329 328 326 325 322 319 316 318 321 325 327 328 329 330 332 334
229 226 219 210 201 196 196 200 204 206 206 205 203 202 203 202 195 175 116 63 39 22 13 10 9 9 9 10 12 13 13 13 13 12 12 13 13 13 14 15 16 16 15 15 15 14 12 12 11 6 359 352 346 342 339 337 334 331 328 325 322 320 321 323 326 328 329 330 332 334 339 343 347 350 351 351 349 347 345 342 340 338 337 337 338 338 337 337 336 335 335 333 329 325 322 322 325 329 333 333 334 335 336
226 223 217 209 201 197 198 202 205 207 209 208 208 208 207 205 196 175 134 71 26 7 2 4 6 7 6 7 9 11 11 11 11 10 10 8 9 11 13 14 17 18 15 15 14 13 11 10 8 4 357 350 344 339 336 333 331 328 327 326 323 321 321 322 322 324 327 328 329 332 336 341 345 349 351 351 349 346 344 341 339 338 338 338 338 339 340 340 340 340 339 339 337 335 332 329 328 329 332 333 334 334 335
223 221 215 208 202 199 200 204 206 208 210 211 211 211 210 207 199 182 164 152 348 350 354 360 3 4 4 3 6 8 9 10 9 8 8 7 7 8 10 12 15 17 16 14 13 12 9 7 4 360 354 347 341 337 335 332 330 327 326 325 323 322 322 321 321 322 324 326 328 331 334 336 340 344 348 350 349 347 344 341 339 338 337 338 339 340 341 342 342 342 342 342 342 341 341 341 339 337 334 333 334 335 336
222 219 214 207 202 200 202 205 207 209 211 212 213 213 212 209 203 194 190 209 285 335 349 355 360 2 1 1 2 5 7 8 7 7 6 7 7 8 9 10 12 14 15 14 13 10 7 3 359 354 349 344 341 338 337 335 332 329 326 325 322 320 320 320 320 321 323 326 328 330 331 332 334 337 342 347 349 348 346 343 341 339 338 338 339 341 342 343 343 343 344 344 345 346 346 347 348 347 346 345 343 340 339
222 220 215 208 203 202 203 206 209 210 213 214 215 215 214 212 208 205 206 221 263 319 342 352 356 358 359 359 360 2 4 5 5 5 5 6 7 8 10 11 11 11 14 15 13 8 2 355 351 348 345 345 346 344 343 341 338 334 330 326 322 319 319 319 321 323 325 327 328 329 328 328 329 332 337 342 347 350 351 348 345 341 339 339 340 342 343 344 344 345 345 346 347 347 348 349 351 352 353 353 349 343 340
223 221 215 209 204 203 205 207 209 212 214 216 217 217 215 214 212 212 216 229 257 304 336 349 353 355 356 356 357 359 1 2 2 4 5 6 7 9 11 11 9 8 11 15 11 360 350 342 342 345 347 350 351 351 348 346 344 340 335 329 324 322 322 323 325 327 327 328 328 329 328 328 329 331 335 340 345 350 354 354 351 346 342 340 341 342 343 343 344 344 345 346 347 348 349 350 351 353 355 353 347 341 337
223 222 217 210 205 204 206 208 210 212 215 217 218 218 217 216 215 217 222 232 254 295 331 346 351 353 353 354 354 355 357 359 360 1 4 7 9 11 12 9 6 7 11 12 6 349 339 336 340 346 348 350 352 352 350 349 347 343 338 333 330 328 329 330 331 332 331 331 331 331 331 331 333 335 337 340 343 346 350 354 356 352 347 343 341 341 341 341 341 342 343 345 346 347 348 349 351 353 353 351 344 337 334
224 223 219 212 207 206 207 209 211 213 216 218 220 220 218 218 218 221 226 237 257 295 328 342 347 350 351 351 352 352 354 356 358 360 1 5 9 11 12 10 8 6 5 5 360 345 335 338 342 346 346 347 349 350 349 349 347 344 340 336 334 335 335 336 336 337 336 335 335 335 335 336 338 339 341 341 342 343 345 348 352 353 351 346 342 340 339 338 338 338 339 341 343 344 346 347 349 351 350 346 340 333 330
225 225 220 213 208 207 208 210 212 214 217 219 221 222 221 221 223 226 231 243 264 297 324 335 341 345 348 349 349 350 351 353 356 358 360 2 5 8 11 13 13 9 358 353 347 339 336 341 344 345 343 343 344 345 346 346 346 343 340 338 337 338 339 340 340 339 338 338 338 338 339 340 341 342 343 342 342 341 341 342 344 347 348 346 343 340 338 336 336 336 337 339 340 342 343 345 346 346 344 341 336 332 328
227 226 221 214 210 208 209 211 213 215 218 221 222 223 224 225 226 230 236 248 269 295 315 327 335 340 344 346 347 348 349 351 353 356 358 360 3 5 8 9 11 12 6 351 343 341 342 345 346 343 337 339 340 342 342 343 343 343 341 339 339 340 341 341 341 340 339 339 339 340 342 343 343 343 344 343 342 340 339 339 340 341 343 343 342 341 340 338 338 338 338 339 340 340 341 342 343 342 340 337 334 331 329
227 226 221 215 211 210 210 212 214 217 219 222 224 225 226 228 230 233 240 252 270 291 307 319 328 334 339 342 344 346 348 350 351 353 355 358 1 3 5 5 4 3 2 357 351 348 347 346 344 338 334 337 339 339 338 339 340 341 340 339 339 340 341 341 341 340 340 340 340 342 344 345 345 345 344 343 342 341 340 339 338 339 340 342 342 342 342 342 341 341 340 340 340 340 340 340 340 339 337 335 333 331 329
227 226 221 216 213 211 212 213 215 217 220 223 225 227 228 230 232 236 243 254 269 284 299 312 321 329 333 337 340 343 345 348 350 352 354 356 359 2 4 3 2 360 357 355 352 350 349 344 339 336 336 333 333 334 336 336 337 337 338 338 339 339 340 340 340 340 340 341 341 343 344 346 346 346 345 344 343 342 340 340 340 341 342 343 343 343 342 342 341 340 339 338 337 337 337 337 337 337 336 334 332 331 329
227 225 221 217 214 213 213 214 216 218 221 223 226 228 230 231 234 238 244 253 265 279 293 305 316 323 328 332 336 339 342 345 349 352 355 357 358 360 1 1 360 358 355 352 350 348 347 344 341 337 333 327 326 328 332 334 335 335 335 336 336 337 338 339 340 341 341 341 342 343 345 346 347 347 347 345 344 342 341 342 343 344 345 344 344 342 340 338 337 335 333 332 331 331 332 333 334 334 334 333 332 330 329
227 225 221 217 215 214 214 215 216 218 220 223 226 228 230 232 234 238 244 252 262 275 288 300 310 317 323 327 331 336 340 343 347 351 355 357 358 358 358 359 357 355 353 351 348 346 344 342 340 337 333 330 327 326 326 330 332 333 333 333 333 334 335 338 340 341 341 341 342 344 345 346 347 348 347 346 344 342 341 343 345 347 346 345 342 339 336 334 331 329 326 325 324 324 325 327 329 330 331 331 330 329 328